Location: Kergonan
(48.2337°N, 4.5518°W)
Time: 20:07:12
(UTC+00:00)

Cosmos 972 Rocket - Pass Details

Date: 18 January 2020
Orbit: 713 x 1151 km, 75.8° (Epoch: 16 February)

Event Time Altitude Azimuth Distance (km) Brightness Sun altitude
Exits shadow 06:14:28 - 339° (NNW) 3,540 7.1 -17.5°
Reaches altitude 10° 06:16:21 10° 338° (NNW) 2,839 6.6 -17.2°
Maximum altitude 06:22:56 81° 253° (WSW) 964 4.4 -16.1°
Drops below altitude 10° 06:28:44 10° 167° (SSE) 2,513 7.0 -15.2°
Sets 06:31:01 0° 166° (SSE) 3,386 7.7 -14.8°
